Regional Weather Roundup
Issued by NWS Northern Indiana

Home | Current Version | Previous Version | Text Only | Print | Product List | Glossary On
Versions: 1 2 3 4 5 6 7 8 9 10 11 12 13 14 15 16 17 18 19 20 21 22 23 24 25 26 27 28 29 30 31 32 33 34 35 36 37 38 39 40 41 42 43 44 45 46 47 48 49 50
000
ASUS43 KIWX 291110
RWRIWX

KIWX WEATHER ROUNDUP
NATIONAL WEATHER SERVICE NORTHERN INDIANA
700 AM EDT WED JUL 29 2015

NOTE: "FAIR" INDICATES FEW OR NO CLOUDS BELOW 12,000 FEET WITH NO
SIGNIFICANT WEATHER AND/OR OBSTRUCTIONS TO VISIBILITY.

* THESE STATIONS ARE NOT UNDER NWS QUALITY CONTROL. THEY ALSO MAY NOT
  REPORT WEATHER SUCH AS PRECIPITATION OR FOG.

INZ001>027-291200-
NORTHERN INDIANA

CITY           SKY/WX    TMP DP  RH WIND       PRES   REMARKS
GARY*          CLOUDY    75  73  94 W7        29.93S
VALPARAISO     CLOUDY    75  73  93 W5        29.94S
MICHIGAN CITY* LGT RAIN  75  73  94 SW6       29.95R
LAPORTE*       CLOUDY    76  76 100 W5        29.95S FOG
KNOX*          CLOUDY    73  73 100 S6        29.94S
SOUTH BEND     CLOUDY    77  72  84 SW8       29.95R
ELKHART*       CLOUDY    73  68  83 CALM      29.96
GOSHEN         CLOUDY    73  69  87 CALM      29.96R
MONTICELLO*    CLOUDY    75  74  97 CALM      29.94F
LOGANSPORT*    MOCLDY    72  68  88 SW5       29.96S FOG
ROCHESTER*     CLOUDY    77  75  94 CALM      29.96R FOG
WARSAW*        CLOUDY    73  72  94 CALM      29.96R FOG
ANGOLA*        PTCLDY    72  63  73 CALM      29.97R
FORT WAYNE     MOCLDY    73  71  93 S3        29.97S FOG
HUNTINGTON*    MOCLDY    74  73  94 CALM      29.96S FOG
PERU/GRISSOM   MOCLDY    74  72  93 SW3       29.95S
MARION*        MOCLDY    70  70  99 CALM      29.98R FOG

$$
INZ028>050-291200-
CENTRAL INDIANA

CITY           SKY/WX    TMP DP  RH WIND       PRES   REMARKS
LAFAYETTE      CLOUDY    74  71  91 W3        29.94F
KOKOMO*        MOCLDY    72  70  94 S5        29.96S
MUNCIE*        PTCLDY    74  71  91 S3        29.98S
INDIANAPOLIS   MOCLDY    76  73  91 SW6       29.97R

$$
MIZ043>046-050>051-056>058-064>065-071>073-077>080-291200-
SOUTHWEST LOWER MICHIGAN

CITY           SKY/WX    TMP DP  RH WIND       PRES   REMARKS
BATTLE CREEK   MOCLDY    72  63  73 S6        29.96S
BENTON HARBOR  CLOUDY    76  71  85 S5        29.93R
COLDWATER*     MOCLDY    70  63  79 CALM      29.96S
HILLSDALE*     PTCLDY    69  67  90 S3        29.98S
HOLLAND        MOCLDY    73  67  81 CALM      29.93S
GRAND RAPIDS   CLOUDY    73  65  75 S7        29.93S
KALAMAZOO      CLOUDY    73  65  75 S5        29.96R
STURGIS*       MOCLDY    72  66  83 CALM      29.96R
THREE RIVERS*  MOCLDY    71  66  85 CALM      29.96R

$$
OHZ001>008-015>018-024>025-291200-
NORTHWEST OHIO

CITY           SKY/WX    TMP DP  RH WIND       PRES   REMARKS
WAUSEON*       FAIR      66  66 100 CALM      29.96S FOG
DEFIANCE       PTCLDY    69  65  86 CALM      29.96F
FINDLAY        CLEAR     71  66  84 S3        29.97R
TOLEDO EXPRESS CLEAR     66  65  96 CALM      29.96S
TOLEDO METCALF CLEAR     70  64  81 CALM      29.97S
LIMA           CLEAR     71  67  87 CALM      29.98R

$$
AND FOR LAKE MICHIGAN COASTAL AND OPEN LAKE BUOY OBSERVATIONS

STATION/POSITION TEMP    WIND        PRES    VSBY  WAVE
                 AIR SEA DIR/SP/G                  HT/PER
                 (F)     (DEG/KT/KT) (MB)    (MI)  (FT/S)
CALUMET HARBOR    75     230/  6/  9   N/A
MICHIGAN CITY     78     170/  8/ 10   N/A
BURNS HARBOR      77     230/  7/ 10 1013.9F
SAINT JOSEPH      76     180/  9/ 12 1014.6R
4 MI NW BRIDGMAN  76 75  270/ 10/ 12   N/A           1
MICHIGAN CITY     76 74  270/  6/  8   N/A           1/ 2

$$
&&



USA.gov is the U.S. government's official web portal to all federal, state and local government web resources and services.